Погода в Агишбатое

Россия / Чеченская Республика     43°00′47″N   46°06′27″E
темп.,
°C
ветер,
м/с
пор.,
м/с
влажн.,
%
обл.,
%
осадки,
мм/ч
давл.,
гПа
погр.,
м
6 марта, сб
сб600:00+2ююв22440 0.0 102023
03:00+2ю33430 0.0 102024
06:00+2ю33380 0.0 102024
09:00+9ю11406 0.0 101885
12:00+14ссв112910 0.0 1016650
15:00+13св23328 0.0 1014838
18:00+7ю234932 0.0 101423
21:00+5ю434666 0.0 101460
7 марта, вс
вс700:00+4ю3346100 0.0 101343
03:00+4ююз2249100 0.0 101423
06:00+1зсз3795100 0.4 1018525
09:00−2зсз3694100 5.7 1021615
12:00−1сз3588100 1.7 1020650
15:00−1ссз2370100 2.9 1020879
18:00−4св117289 0.3 102234
21:00−5ю127562 0.3 102321
8 марта, пн
пн800:00−5юв11740 0.0 102221
03:00−5ю11740 0.0 102321
06:00−5ююв11750 0.0 102221
09:000с21620 0.0 1021434
12:00+1с216367 0.0 1018743
15:00+1ссз116583 0.1 1016675
18:00−1зюз1276100 0.1 101640
21:00−2юз1293100 0.8 1017191
9 марта, вт
вт900:00−2юз1293100 0.9 1017105
03:00−3вюв0091100 1.0 101721
06:00−3ю118893 0.1 101721
09:000сз117691 0.1 1017437
12:00+3ссв226963 0.1 1016830
15:00+3ссв116479 0.2 1015982
18:000в017481 0.1 101622
21:00−1ю227767 0.1 101924
10 марта, ср
ср1000:00−2ю226846 0.0 102023
03:00−3ююз119172 0.6 102175
06:00−3ююз0193100 1.8 102276
09:00−2ссв1189100 3.9 1022322
12:00−1с348999 0.8 1021542
15:00−1ссв2383100 2.2 1021588
18:00−3св2492100 1.0 1021431
21:00−4св1293100 1.6 1021217